ARG2742 SACO-SAAR

Flight info

Callsign ARG2742
Flight time 0h 40m
Altitude 23000
Route ASEMI DCT UTRAX W24 MJZ W55 GEDUK
Aircraft B738/M-SDE2E3FGHIRWXY/LB1

Departure

Time 2026-05-05 02:17
Airport Ingeniero Aeronáutico Ambrosio L.V. Taravella International Airport (SACO)

Arrival

Time 2026-05-05 02:58
Airport Rosario Islas Malvinas International Airport (SAAR)
Time Latitude Longitude Altitude Speed Heading
2026-05-05 02:06 -31.31477 -64.21029 1612 ft 0 kts 120°
2026-05-05 02:11 -31.31476 -64.21031 1612 ft 1 kts 120°
2026-05-05 02:11 -31.31468 -64.21046 1612 ft 3 kts 127°
2026-05-05 02:11 -31.31454 -64.21062 1612 ft 3 kts 145°
2026-05-05 02:12 -31.31436 -64.21073 1612 ft 3 kts 163°
2026-05-05 02:12 -31.31396 -64.21073 1612 ft 3 kts 194°
2026-05-05 02:12 -31.31378 -64.21065 1612 ft 0 kts 206°
2026-05-05 02:13 -31.31388 -64.21072 1612 ft 7 kts 209°
2026-05-05 02:13 -31.31458 -64.21094 1612 ft 10 kts 180°
2026-05-05 02:13 -31.31527 -64.21088 1612 ft 10 kts 178°
2026-05-05 02:13 -31.31595 -64.21102 1612 ft 10 kts 186°
2026-05-05 02:14 -31.31690 -64.21105 1612 ft 16 kts 181°
2026-05-05 02:14 -31.31777 -64.21069 1612 ft 11 kts 142°
2026-05-05 02:14 -31.31837 -64.21015 1612 ft 13 kts 154°
2026-05-05 02:14 -31.31948 -64.21009 1612 ft 18 kts 182°
2026-05-05 02:15 -31.32084 -64.21014 1612 ft 21 kts 181°
2026-05-05 02:15 -31.32237 -64.21019 1612 ft 23 kts 181°
2026-05-05 02:15 -31.32389 -64.21023 1612 ft 16 kts 181°
2026-05-05 02:15 -31.32445 -64.21000 1612 ft 11 kts 138°
2026-05-05 02:16 -31.32475 -64.20925 1612 ft 10 kts 83°
2026-05-05 02:16 -31.32439 -64.20844 1612 ft 13 kts 35°
2026-05-05 02:16 -31.32387 -64.20828 1612 ft 0 kts
2026-05-05 02:16 -31.32207 -64.20823 1612 ft 59 kts 360°
2026-05-05 02:17 -31.31581 -64.20805 1612 ft 120 kts
2026-05-05 02:17 -31.30568 -64.20786 1670 ft 166 kts
2026-05-05 02:17 -31.29340 -64.20647 2156 ft 187 kts
2026-05-05 02:17 -31.28087 -64.20158 2883 ft 194 kts 31°
2026-05-05 02:18 -31.27149 -64.19022 3707 ft 202 kts 57°
2026-05-05 02:18 -31.26826 -64.17341 4161 ft 227 kts 94°
2026-05-05 02:18 -31.27350 -64.15579 4804 ft 241 kts 122°
2026-05-05 02:18 -31.28668 -64.14284 5357 ft 264 kts 149°
2026-05-05 02:19 -31.30495 -64.13661 5911 ft 285 kts 170°
2026-05-05 02:19 -31.32520 -64.13493 6587 ft 297 kts 175°
2026-05-05 02:19 -31.34610 -64.13264 7338 ft 304 kts 170°
2026-05-05 02:19 -31.36631 -64.12547 8148 ft 302 kts 149°
2026-05-05 02:20 -31.38287 -64.11041 8859 ft 306 kts 129°
2026-05-05 02:20 -31.39539 -64.09003 9524 ft 310 kts 117°
2026-05-05 02:20 -31.40675 -64.06820 10213 ft 318 kts 122°
2026-05-05 02:20 -31.42013 -64.04704 10797 ft 329 kts 126°
2026-05-05 02:21 -31.43487 -64.02543 11084 ft 349 kts 128°
2026-05-05 02:21 -31.45073 -64.00277 11331 ft 368 kts 128°
2026-05-05 02:21 -31.46710 -63.97926 11613 ft 384 kts 128°
2026-05-05 02:21 -31.48406 -63.95478 12141 ft 390 kts 128°
2026-05-05 02:22 -31.50129 -63.92981 12767 ft 394 kts 128°
2026-05-05 02:22 -31.51857 -63.90469 13382 ft 397 kts 128°
2026-05-05 02:22 -31.53596 -63.87935 13984 ft 401 kts 128°
2026-05-05 02:22 -31.55351 -63.85373 14573 ft 404 kts 128°
2026-05-05 02:23 -31.57119 -63.82787 15149 ft 408 kts 127°
2026-05-05 02:23 -31.58901 -63.80178 15715 ft 411 kts 127°
2026-05-05 02:23 -31.60698 -63.77544 16244 ft 415 kts 127°
2026-05-05 02:23 -31.62491 -63.74930 16756 ft 419 kts 127°
2026-05-05 02:24 -31.64324 -63.72256 17265 ft 422 kts 128°
2026-05-05 02:24 -31.66169 -63.69556 17761 ft 426 kts 128°
2026-05-05 02:24 -31.68028 -63.66833 18247 ft 429 kts 128°
2026-05-05 02:24 -31.69920 -63.64074 18726 ft 433 kts 128°
2026-05-05 02:25 -31.71811 -63.61306 19187 ft 436 kts 127°
2026-05-05 02:25 -31.73715 -63.58508 19641 ft 440 kts 127°
2026-05-05 02:25 -31.75630 -63.55686 20082 ft 443 kts 127°
2026-05-05 02:25 -31.76908 -63.53800 20364 ft 445 kts 127°
2026-05-05 02:26 -31.79469 -63.50016 21071 ft 445 kts 127°
2026-05-05 02:26 -31.80769 -63.48093 21485 ft 444 kts 127°
2026-05-05 02:26 -31.82687 -63.45252 22094 ft 442 kts 127°
2026-05-05 02:26 -31.84597 -63.42424 22633 ft 442 kts 126°
2026-05-05 02:27 -31.86473 -63.39646 22853 ft 432 kts 124°
2026-05-05 02:27 -31.88316 -63.36913 22870 ft 419 kts 123°
2026-05-05 02:27 -31.90099 -63.34269 22874 ft 407 kts 124°
2026-05-05 02:27 -31.91851 -63.31671 22858 ft 410 kts 124°
2026-05-05 02:28 -31.93646 -63.29006 22868 ft 419 kts 124°
2026-05-05 02:28 -31.95465 -63.26297 22882 ft 421 kts 133°
2026-05-05 02:28 -31.97296 -63.23577 22884 ft 428 kts 131°
2026-05-05 02:28 -31.99169 -63.20787 22889 ft 437 kts 129°
2026-05-05 02:29 -32.01055 -63.17977 22898 ft 436 kts 128°
2026-05-05 02:29 -32.02930 -63.15179 22899 ft 433 kts 127°
2026-05-05 02:29 -32.04797 -63.12390 22900 ft 433 kts 127°
2026-05-05 02:29 -32.06663 -63.09601 22901 ft 433 kts 127°
2026-05-05 02:30 -32.08529 -63.06809 22902 ft 432 kts 126°
2026-05-05 02:30 -32.10366 -63.04063 22902 ft 431 kts 130°
2026-05-05 02:30 -32.12217 -63.01316 22911 ft 425 kts 131°
2026-05-05 02:30 -32.14040 -62.98602 22917 ft 419 kts 131°
2026-05-05 02:31 -32.15842 -62.95916 22922 ft 413 kts 131°
2026-05-05 02:31 -32.17611 -62.93276 22936 ft 405 kts 129°
2026-05-05 02:31 -32.19344 -62.90683 22939 ft 397 kts 130°
2026-05-05 02:31 -32.21044 -62.88138 22942 ft 393 kts 129°
2026-05-05 02:32 -32.22725 -62.85618 22945 ft 389 kts 129°
2026-05-05 02:32 -32.24397 -62.83110 22949 ft 388 kts 129°
2026-05-05 02:32 -32.26069 -62.80600 22952 ft 389 kts 128°
2026-05-05 02:32 -32.27746 -62.78080 22957 ft 390 kts 128°
2026-05-05 02:33 -32.29420 -62.75563 22962 ft 390 kts 128°
2026-05-05 02:33 -32.31096 -62.73040 22965 ft 391 kts 127°
2026-05-05 02:33 -32.32754 -62.70542 22967 ft 391 kts 127°
2026-05-05 02:33 -32.34433 -62.68012 22965 ft 390 kts 128°
2026-05-05 02:34 -32.36111 -62.65481 22969 ft 393 kts 127°
2026-05-05 02:34 -32.37798 -62.62935 22972 ft 393 kts 127°
2026-05-05 02:34 -32.39488 -62.60382 22974 ft 394 kts 127°
2026-05-05 02:34 -32.41178 -62.57828 22975 ft 394 kts 127°
2026-05-05 02:35 -32.42876 -62.55260 22979 ft 395 kts 127°
2026-05-05 02:35 -32.44547 -62.52730 22978 ft 395 kts 127°
2026-05-05 02:35 -32.46239 -62.50168 22979 ft 395 kts 127°
2026-05-05 02:35 -32.47951 -62.47572 22980 ft 395 kts 127°
2026-05-05 02:36 -32.49648 -62.45012 22979 ft 395 kts 127°
2026-05-05 02:36 -32.51306 -62.42507 22977 ft 386 kts 127°
2026-05-05 02:36 -32.52948 -62.40020 22977 ft 378 kts 127°
2026-05-05 02:36 -32.54555 -62.37579 22980 ft 374 kts 127°
2026-05-05 02:37 -32.56150 -62.35152 22982 ft 373 kts 127°
2026-05-05 02:37 -32.57740 -62.32729 22771 ft 370 kts 127°
2026-05-05 02:37 -32.59307 -62.30339 22519 ft 364 kts 127°
2026-05-05 02:37 -32.60857 -62.27971 22137 ft 363 kts 127°
2026-05-05 02:38 -32.62403 -62.25609 21749 ft 361 kts 127°
2026-05-05 02:38 -32.63939 -62.23261 21359 ft 359 kts 127°
2026-05-05 02:38 -32.65469 -62.20922 20964 ft 358 kts 127°
2026-05-05 02:38 -32.66981 -62.18586 20569 ft 356 kts 125°
2026-05-05 02:39 -32.68226 -62.16056 20173 ft 354 kts 114°
2026-05-05 02:39 -32.69057 -62.13352 19777 ft 353 kts 105°
2026-05-05 02:39 -32.69630 -62.10518 19382 ft 351 kts 101°
2026-05-05 02:39 -32.70094 -62.07676 18988 ft 350 kts 99°
2026-05-05 02:40 -32.70535 -62.04835 18598 ft 348 kts 100°
2026-05-05 02:40 -32.70978 -62.02008 18209 ft 347 kts 100°
2026-05-05 02:40 -32.71422 -61.99195 17825 ft 346 kts 100°
2026-05-05 02:40 -32.71868 -61.96393 17440 ft 344 kts 100°
2026-05-05 02:41 -32.72312 -61.93607 17060 ft 343 kts 100°
2026-05-05 02:41 -32.72756 -61.90836 16681 ft 341 kts 100°
2026-05-05 02:41 -32.73195 -61.88094 16309 ft 340 kts 100°
2026-05-05 02:41 -32.73637 -61.85346 15936 ft 338 kts 100°
2026-05-05 02:42 -32.74076 -61.82612 15566 ft 336 kts 100°
2026-05-05 02:42 -32.74512 -61.79896 15198 ft 334 kts 101°
2026-05-05 02:42 -32.74948 -61.77188 14832 ft 332 kts 100°
2026-05-05 02:42 -32.75390 -61.74502 14469 ft 330 kts 101°
2026-05-05 02:43 -32.75840 -61.71830 14107 ft 329 kts 101°
2026-05-05 02:43 -32.76280 -61.69180 13749 ft 327 kts 101°
2026-05-05 02:43 -32.76714 -61.66530 13393 ft 325 kts 101°
2026-05-05 02:43 -32.77141 -61.63904 13041 ft 323 kts 101°
2026-05-05 02:44 -32.77557 -61.61325 12692 ft 321 kts 102°
2026-05-05 02:44 -32.77973 -61.58730 12344 ft 319 kts 102°
2026-05-05 02:44 -32.78385 -61.56147 11997 ft 317 kts 101°
2026-05-05 02:44 -32.78793 -61.53587 11653 ft 315 kts 101°
2026-05-05 02:45 -32.79198 -61.51036 11312 ft 313 kts 102°
2026-05-05 02:45 -32.79600 -61.48504 10996 ft 310 kts 101°
2026-05-05 02:45 -32.79994 -61.46016 10851 ft 302 kts 101°
2026-05-05 02:45 -32.80374 -61.43614 10689 ft 290 kts 101°
2026-05-05 02:46 -32.80741 -61.41295 10532 ft 280 kts 101°
2026-05-05 02:46 -32.81095 -61.39053 10371 ft 270 kts 104°
2026-05-05 02:46 -32.81619 -61.36953 10215 ft 264 kts 117°
2026-05-05 02:46 -32.82487 -61.35029 10032 ft 269 kts 124°
2026-05-05 02:47 -32.83480 -61.33114 9761 ft 274 kts 126°
2026-05-05 02:47 -32.84516 -61.31194 9480 ft 277 kts 126°
2026-05-05 02:47 -32.85563 -61.29261 9197 ft 278 kts 126°
2026-05-05 02:47 -32.86612 -61.27326 8916 ft 279 kts 126°
2026-05-05 02:48 -32.87649 -61.25412 8628 ft 278 kts 127°
2026-05-05 02:48 -32.88699 -61.23480 8327 ft 277 kts 127°
2026-05-05 02:48 -32.89742 -61.21560 8031 ft 276 kts 127°
2026-05-05 02:48 -32.90790 -61.19632 7735 ft 278 kts 127°
2026-05-05 02:49 -32.91840 -61.17700 7436 ft 278 kts 127°
2026-05-05 02:49 -32.92910 -61.15757 7015 ft 284 kts 126°
2026-05-05 02:49 -32.93998 -61.13776 6706 ft 287 kts 126°
2026-05-05 02:49 -32.95091 -61.11781 6402 ft 286 kts 126°
2026-05-05 02:50 -32.96171 -61.09804 6101 ft 283 kts 126°
2026-05-05 02:50 -32.97227 -61.07867 5808 ft 282 kts 124°
2026-05-05 02:50 -32.98300 -61.05894 5507 ft 285 kts 122°
2026-05-05 02:50 -32.99373 -61.03916 5213 ft 282 kts 120°
2026-05-05 02:51 -33.00428 -61.01970 4923 ft 277 kts 119°
2026-05-05 02:51 -33.01459 -61.00067 4641 ft 274 kts 120°
2026-05-05 02:51 -33.02493 -60.98158 4451 ft 271 kts 120°
2026-05-05 02:51 -33.03495 -60.96306 4300 ft 261 kts 121°
2026-05-05 02:52 -33.04461 -60.94520 4154 ft 252 kts 121°
2026-05-05 02:52 -33.05402 -60.92779 4017 ft 246 kts 120°
2026-05-05 02:52 -33.06322 -60.91078 3883 ft 244 kts 120°
2026-05-05 02:52 -33.07235 -60.89387 3750 ft 241 kts 121°
2026-05-05 02:53 -33.08146 -60.87703 3616 ft 242 kts 121°
2026-05-05 02:53 -33.08785 -60.85883 3452 ft 236 kts 92°
2026-05-05 02:53 -33.08457 -60.84101 3308 ft 217 kts 54°
2026-05-05 02:53 -33.07345 -60.83037 2961 ft 203 kts 14°
2026-05-05 02:54 -33.05990 -60.82843 2717 ft 193 kts 359°
2026-05-05 02:54 -33.04681 -60.82639 2541 ft 182 kts
2026-05-05 02:54 -33.03468 -60.82403 2383 ft 174 kts 12°
2026-05-05 02:54 -33.02312 -60.82111 2211 ft 166 kts 15°
2026-05-05 02:55 -33.01194 -60.81769 1999 ft 166 kts 16°
2026-05-05 02:55 -33.00121 -60.81406 1870 ft 153 kts 16°
2026-05-05 02:55 -32.99126 -60.81048 1686 ft 148 kts 16°
2026-05-05 02:55 -32.98153 -60.80700 1444 ft 143 kts 15°
2026-05-05 02:56 -32.97234 -60.80376 1334 ft 134 kts 15°
2026-05-05 02:56 -32.96359 -60.80050 1159 ft 130 kts 15°
2026-05-05 02:56 -32.95490 -60.79752 968 ft 131 kts 16°
2026-05-05 02:56 -32.94584 -60.79491 694 ft 136 kts 14°
2026-05-05 02:57 -32.93668 -60.79250 512 ft 133 kts 13°
2026-05-05 02:57 -32.92771 -60.79027 330 ft 131 kts 11°
2026-05-05 02:57 -32.91896 -60.78828 160 ft 126 kts 12°
2026-05-05 02:57 -32.91066 -60.78631 95 ft 112 kts 11°
2026-05-05 02:58 -32.90566 -60.78516 93 ft 35 kts
2026-05-05 02:58 -32.90340 -60.78471 93 ft 31 kts
2026-05-05 02:58 -32.90153 -60.78434 93 ft 24 kts
2026-05-05 02:58 -32.91106 -60.78640 95 ft 113 kts 11°
2026-05-05 02:59 -32.92884 -60.79054 347 ft 131 kts 11°
2026-05-05 02:59 -32.92000 -60.78856 176 ft 126 kts 12°
2026-05-05 02:59 -32.91165 -60.78655 95 ft 116 kts 11°
2026-05-05 02:59 -32.90073 -60.78416 93 ft 4 kts 59°
2026-05-05 03:00 -32.90078 -60.78392 93 ft 5 kts 143°
2026-05-05 03:00 -32.90131 -60.78419 93 ft 13 kts 196°
2026-05-05 03:00 -32.90246 -60.78443 93 ft 20 kts 189°
2026-05-05 03:00 -32.90407 -60.78479 93 ft 27 kts 191°
2026-05-05 03:01 -32.90608 -60.78525 93 ft 32 kts 191°
2026-05-05 03:01 -32.90833 -60.78575 93 ft 31 kts 184°
2026-05-05 03:01 -32.91031 -60.78505 93 ft 28 kts 157°
2026-05-05 03:01 -32.91162 -60.78406 93 ft 19 kts 141°
2026-05-05 03:02 -32.91271 -60.78307 93 ft 27 kts 144°
2026-05-05 03:02 -32.91450 -60.78136 93 ft 14 kts 144°
2026-05-05 03:02 -32.91519 -60.78127 93 ft 13 kts 202°
2026-05-05 03:02 -32.91613 -60.78174 93 ft 14 kts 201°
2026-05-05 03:03 -32.91661 -60.78162 93 ft 7 kts 120°
2026-05-05 03:03 -32.91676 -60.78118 93 ft 3 kts 112°
2026-05-05 03:03 -32.91678 -60.78112 93 ft 0 kts 112°